Regional Weather Roundup
Issued by NWS

Home | Current Version | Previous Version | Text Only | Print | Product List | Glossary On
Versions: 1 2 3 4 5 6 7 8 9 10 11 12 13 14 15 16 17 18 19 20 21 22 23 24 25 26 27 28 29 30 31 32 33 34 35 36 37 38 39 40 41 42 43 44 45 46 47 48 49 50
758
ASUS43 KOAX 260210
RWRNE

WEATHER ROUNDUP FOR NEBRASKA
NATIONAL WEATHER SERVICE OMAHA NE
900 PM CDT MON JUL 25 2016

NOTES: SATELLITE DATA IS BEING USED TO AUGMENT CLOUD COVER ABOVE
       12000 FEET.
       "FAIR" INDICATES FEW OR NO CLOUDS BELOW 12,000 FEET WITH NO
       SIGNIFICANT WEATHER AND/OR OBSTRUCTIONS TO VISIBILITY.

  * THESE STATIONS DO NOT REPORT WEATHER SUCH AS RAIN...SNOW OR FOG.

NEZ001>004-019>022-054>056-260300-
NEBRASKA PANHANDLE

CITY           SKY/WX    TMP DP  RH WIND       PRES   REMARKS
SCOTTSBLUFF    CLEAR     85  59  41 SE12      30.05R
ALLIANCE       CLEAR     79  61  53 SE14      30.08R
CHADRON        CLEAR     87  58  37 SE17      30.01R
KIMBALL        CLEAR     79  64  60 SE14      30.13S
SIDNEY         CLEAR     79  60  52 S17       30.13R
$$

NEZ057>060-069>072-079>082-260300-
SOUTHWEST NEBRASKA

CITY           SKY/WX    TMP DP  RH WIND       PRES   REMARKS
NORTH PLATTE   CLEAR     75  68  78 SE6       30.08R
IMPERIAL       CLOUDY    81  61  50 S9        30.10R
LEXINGTON      CLEAR     78  67  70 SE7       30.09R
MCCOOK         CLEAR     81  63  54 SE10      30.07R
OGALLALA       CLEAR     82  61  49 S5        30.08S
$$

NEZ005>010-023>029-035>040-094-260300-
NORTH CENTRAL NEBRASKA

CITY           SKY/WX    TMP DP  RH WIND       PRES   REMARKS
VALENTINE      CLEAR     81  59  47 S10       30.05R
AINSWORTH      CLEAR     78  59  53 SE8       30.08R
BROKEN BOW     CLEAR     75  64  68 SE5       30.09R
O`NEILL        CLEAR     78  60  53 SE7       30.07S
ORD            CLEAR     79  61  53 SE7       30.07R
THEDFORD       CLEAR     80  66  63 SE7       30.10R
$$

NEZ041-046>049-061>064-073>077-083>087-260300-
SOUTH CENTRAL NEBRASKA

CITY           SKY/WX    TMP DP  RH WIND       PRES   REMARKS
GRAND ISLAND   CLEAR     76  65  68 SE5       30.09R
AURORA         CLEAR     74  67  77 SE6       30.08R
HASTINGS       CLEAR     77  63  61 E5        30.09R
HEBRON         CLEAR     76  62  61 E5        30.06R
HOLDREGE       CLEAR     77  66  69 SE5       30.09R
KEARNEY *      CLEAR     75  63  64 E8        30.10R
YORK           CLEAR     73  63  68 SE7       30.08R
$$

NEZ011>018-030>034-042>045-260300-
NORTHEAST NEBRASKA

CITY           SKY/WX    TMP DP  RH WIND       PRES   REMARKS
NORFOLK        CLEAR     73  63  70 SE6       30.07R
ALBION         CLEAR     74  65  73 SE5       30.08R
BLAIR          CLEAR     77  69  76 E3        30.07R
FREMONT        CLEAR     77  64  62 SE3       30.07R
TEKAMAH        CLEAR     77  69  76 S3        30.05R
WAYNE          CLEAR     73  68  84 SE5       30.07S
$$

NEZ050>053-065>068-078-088>093-260300-
SOUTHEAST NEBRASKA

CITY           SKY/WX    TMP DP  RH WIND       PRES   REMARKS
LINCOLN        CLEAR     81  64  56 E6        30.07R
OMAHA EPPLEY   PTCLDY    81  70  69 E5        30.05R
BEATRICE       CLEAR     78  66  66 E3        30.07R
FALLS CITY     CLEAR     77  68  73 E3        30.04S
NEBRASKA CITY  CLEAR     77  65  67 E3        30.07R
PLATTSMOUTH    PTCLDY    78  68  71 E3        30.06S
$$

NEZ044-045-051>053-067-260300-
OMAHA AREA

CITY           SKY/WX    TMP DP  RH WIND       PRES   REMARKS
OMAHA EPPLEY   PTCLDY    81  70  69 E5        30.05R
BLAIR          CLEAR     77  69  76 E3        30.07R
FREMONT        CLEAR     77  64  62 SE3       30.07R
MILLARD        CLEAR     81  66  60 E3        30.06R
OFFUTT AFB     CLEAR     76  69  79 E3        30.05S
PLATTSMOUTH    PTCLDY    78  68  71 E3        30.06S
WAHOO          FAIR      74  68  80 SE5       30.07R
$$




USA.gov is the U.S. government's official web portal to all federal, state and local government web resources and services.